Vertical_Velocity
-2 1 -2 -3 0 4 0 -1 2 1 0 -2 -2 -0 0 1 -0 -1 -3 -2 6 1 -0 -0 -1 0 1 2 4 -2 -0 -1 -1
-1 -2 0 2 2 1 0 -0 -1 -2 1 -0 -2 1 0 -1 -1 1 -1 -0 -3 2 0 1 2 -1 -2 -1 -0 0 1 -2 -0
1 -2 -1 -2 -1 -0 1 -2 -1 -4 2 -0 2 -1 -1 -0 -1 -1 -2 3 -2 -0 -1 -1 -0 4 -0 -1 -2 -1 0 -1 -1
-1 1 1 1 -0 -1 -1 2 -2 -2 -2 2 -0 1 -1 -1 -2 0 -1 3 1 1 -0 0 0 -0 -0 -2 -0 -1 -2 -2 -2
1 -2 -0 2 -2 2 0 1 0 -2 0 0 2 -1 -0 -0 2 -4 0 7 3 5 -1 2 1 -1 -1 -0 -1 4 0 -1 -1
-0 0 -2 -2 0 1 -1 1 -3 -0 0 0 0 1 1 1 -2 -3 -1 1 3 -0 -1 4 4 1 4 0 1 -1 4 -0 -1
-2 2 0 0 0 -1 1 -1 -2 -1 -0 -1 -1 -3 0 1 -1 -3 -1 2 -0 1 1 -2 -3 -0 1 -1 -1 3 1 2 5
-1 -0 -1 2 -1 0 2 1 -1 2 1 -1 -1 -1 0 -1 -2 -2 0 -2 0 -1 -1 5 -0 0 3 -1 0 -1 -1 -1 1
-1 -0 -1 -1 -1 -0 1 0 1 -1 -1 -0 0 1 0 -0 -0 0 2 0 -2 -2 1 0 2 1 0 2 0 -0 3 1 -3
0 1 1 0 -1 -1 -0 -1 -1 -0 -1 -1 -1 1 -1 0 -0 -1 -0 -1 1 -1 1 6 5 0 -1 -1 -0 -1 -1 -1 1
1 -1 0 1 0 -1 -1 0 -1 -4 -0 0 1 2 -2 -0 0 0 -0 -0 1 -1 0 0 0 -2 -1 -4 -1 1 -0 -1 -1
-1 0 -1 0 1 1 0 0 0 -0 -1 -0 0 0 1 1 -1 -0 -1 -0 -0 0 0 0 -0 -2 1 -4 -0 -1 -3 -1 1
0 -0 -0 -0 -0 2 1 0 1 2 1 -0 -1 -1 -0 -0 -0 0 0 0 -0 -0 0 -0 2 -2 -1 -2 -1 -2 -2 -1 -1
2 1 1 1 1 0 1 -1 3 1 0 0 -0 1 0 -0 -0 -1 -1 -2 -1 -1 -2 -1 -0 -1 -2 -1 -1 -1 -2 -1 -2
3 1 1 2 2 1 1 1 0 1 1 -0 -0 1 0 -0 -1 -2 -2 -2 -2 -2 -1 -1 -1 -1 -2 -1 -1 -1 -1 -2 -1
2 1 -0 -0 -0 -1 -0 -0 -0 -1 0 -1 0 -0 -0 0 -0 0 0 1 -1 -0 -2 -1 -0 -1 -2 -3 -2 -2 -1 -1 -2
1 1 -0 0 0 -0 -1 0 -1 -3 0 -1 0 -1 1 -0 0 -1 -1 -1 -2 -1 -1 -3 -1 -1 -0 -2 -2 -1 -2 -1 -1
1 -0 0 -0 -0 -1 -0 -1 0 0 -1 1 0 -1 0 0 0 -0 -1 -2 -1 -2 -2 -2 -2 -1 -2 -1 -2 -1 -0 -1 -2
-0 -0 -1 -1 -1 -1 -1 -1 -1 -1 -1 -1 -2 -1 -2 -3 -1 -1 -1 -1 -1 -2 -0 0 -1 -2 -1 -2 0 -2 -1 -0 -1
1 1 -1 -0 -1 -2 -2 -2 -3 -2 -2 -3 -3 -3 -3 -2 -3 -3 -1 0 2 -2 -1 -2 -1 -3 -0 -1 -1 -0 1 -0 -0
Height
1550 1551 1552 1554 1554 1555 1556 1557 1558 1559 1560 1562 1563 1564 1566 1566 1566 1567 1567 1568 1569 1569 1569 1570 1570 1570 1570 1570 1571 1571 1571 1571 1571
1550 1552 1554 1554 1555 1556 1557 1558 1559 1561 1562 1563 1565 1566 1567 1568 1568 1569 1569 1569 1570 1571 1571 1571 1571 1572 1572 1572 1572 1572 1572 1572 1572
1551 1552 1554 1555 1555 1557 1558 1559 1560 1563 1564 1565 1566 1567 1569 1569 1570 1571 1570 1571 1571 1572 1572 1573 1573 1573 1573 1574 1574 1574 1573 1573 1574
1551 1552 1554 1555 1556 1558 1559 1559 1560 1562 1565 1566 1567 1568 1569 1570 1571 1572 1572 1573 1572 1572 1573 1573 1573 1573 1574 1575 1575 1575 1575 1575 1575
1551 1552 1553 1555 1555 1557 1558 1559 1560 1562 1565 1566 1568 1569 1569 1571 1571 1572 1574 1574 1573 1573 1574 1574 1574 1574 1575 1575 1575 1575 1576 1577 1577
1550 1551 1552 1555 1555 1556 1558 1559 1560 1562 1564 1565 1567 1569 1570 1570 1571 1571 1574 1574 1574 1574 1575 1575 1575 1575 1575 1576 1576 1576 1576 1577 1578
1550 1552 1553 1554 1556 1557 1558 1559 1561 1562 1563 1565 1567 1569 1570 1570 1570 1571 1572 1574 1575 1575 1575 1576 1576 1576 1575 1576 1576 1577 1577 1577 1578
1550 1551 1552 1553 1555 1557 1558 1559 1560 1562 1563 1564 1566 1567 1569 1570 1571 1571 1571 1572 1574 1574 1575 1576 1576 1576 1575 1575 1576 1576 1576 1576 1577
1550 1551 1552 1553 1555 1556 1558 1560 1559 1562 1563 1564 1566 1566 1568 1569 1570 1571 1571 1572 1574 1574 1576 1577 1575 1574 1574 1574 1574 1575 1576 1576 1576
1549 1550 1551 1553 1554 1556 1557 1559 1560 1561 1563 1565 1566 1567 1567 1569 1570 1570 1571 1571 1573 1574 1575 1575 1574 1572 1573 1573 1573 1574 1574 1574 1574
1547 1549 1550 1552 1553 1554 1556 1557 1558 1560 1563 1564 1565 1565 1567 1568 1569 1570 1570 1571 1571 1572 1573 1574 1573 1572 1572 1572 1573 1573 1573 1574 1574
1546 1548 1550 1552 1553 1554 1555 1556 1558 1559 1561 1563 1564 1565 1566 1567 1569 1570 1570 1570 1570 1571 1571 1571 1571 1570 1571 1570 1572 1571 1571 1572 1573
1546 1548 1550 1551 1553 1554 1554 1556 1558 1559 1560 1562 1563 1565 1566 1567 1569 1569 1569 1569 1570 1570 1570 1570 1571 1569 1570 1569 1570 1569 1570 1570 1571
1546 1547 1549 1551 1552 1554 1555 1556 1558 1559 1560 1562 1564 1566 1566 1567 1568 1568 1569 1569 1569 1569 1569 1569 1569 1568 1569 1568 1569 1568 1568 1567 1568
1545 1546 1548 1550 1552 1554 1555 1556 1558 1559 1560 1562 1564 1565 1566 1567 1567 1568 1569 1569 1569 1569 1569 1569 1567 1567 1568 1567 1567 1567 1566 1565 1565
1543 1545 1547 1549 1551 1553 1555 1556 1558 1559 1560 1561 1564 1565 1567 1567 1567 1568 1568 1568 1568 1568 1567 1567 1567 1566 1566 1566 1565 1565 1564 1563 1563
1542 1544 1546 1549 1551 1552 1554 1557 1558 1559 1560 1561 1563 1565 1568 1567 1566 1567 1567 1567 1567 1567 1567 1566 1565 1564 1563 1563 1564 1563 1563 1562 1561
1541 1543 1545 1547 1549 1551 1553 1555 1557 1557 1559 1560 1561 1562 1564 1565 1565 1565 1565 1565 1565 1565 1565 1565 1564 1563 1562 1561 1561 1561 1560 1560 1559
1539 1541 1544 1546 1548 1550 1552 1553 1555 1556 1557 1558 1559 1559 1561 1562 1564 1564 1563 1564 1563 1563 1562 1562 1561 1561 1559 1559 1559 1558 1557 1557 1556
1537 1540 1542 1544 1546 1549 1550 1552 1553 1554 1555 1556 1557 1558 1559 1560 1561 1560 1560 1561 1560 1559 1559 1558 1558 1557 1556 1555 1555 1555 1554 1553 1553